Temperature
16 14 13 13 12 14 15 14 12 12 12 9 9 10 12 13 10 9 10 12 13 15 16 14 13 12 11 10 9 8 7 7 6 5 5 5 5 4 4 3 3 2 1 1
14 13 13 14 13 13 13 13 12 11 11 10 8 10 12 11 10 10 10 11 14 15 16 15 14 13 12 11 10 9 8 7 7 6 5 5 4 4 3 3 2 2 1 1
15 15 15 14 14 14 13 13 12 12 12 11 9 11 11 11 10 10 11 12 13 15 16 16 15 14 13 12 12 11 10 8 7 6 5 4 4 4 3 3 3 2 1 1
14 13 15 15 14 14 12 13 12 13 12 10 11 11 13 11 10 9 11 13 15 17 17 17 16 15 15 15 13 12 11 9 8 7 6 5 5 5 4 4 3 2 1 1
14 15 14 14 14 13 13 13 13 12 11 10 9 10 12 10 12 12 12 15 18 19 18 18 18 17 16 15 14 13 11 10 9 8 7 6 5 5 4 3 3 2 1 1
13 14 14 14 14 13 13 12 10 8 8 10 10 8 11 11 12 13 13 16 18 19 19 19 18 17 17 16 15 13 12 11 10 9 7 6 5 5 4 3 3 2 1 1
13 13 14 14 14 13 13 12 11 12 11 11 10 9 11 12 11 11 12 16 17 18 19 19 19 18 18 17 16 15 14 13 11 10 8 7 6 5 4 4 3 2 1 1
13 13 14 13 13 13 12 12 12 12 11 10 10 9 12 12 12 13 13 15 18 19 19 19 19 18 18 17 16 16 15 14 12 11 10 8 7 5 4 4 3 2 2 1
13 13 13 13 13 12 12 11 11 10 10 9 9 9 11 12 12 12 13 15 17 19 19 19 19 18 18 17 17 16 15 14 13 12 10 9 7 6 5 4 3 2 2 1
13 12 12 12 12 12 12 10 8 10 10 10 10 10 12 14 15 13 12 14 17 18 19 19 19 18 18 17 16 16 15 14 13 12 11 9 8 6 5 4 3 2 2 1
12 12 11 11 11 11 10 10 10 8 8 9 9 12 12 12 13 12 12 15 16 18 18 18 18 18 17 17 16 16 15 14 13 12 11 9 8 7 5 4 3 2 1 0
10 9 10 11 11 10 10 10 9 10 10 7 7 11 13 11 11 11 12 16 17 18 18 18 17 17 17 17 16 16 15 14 14 12 11 9 8 6 5 4 3 2 1 0
9 10 11 12 12 10 10 9 8 9 8 6 7 12 13 11 12 13 14 16 16 16 16 16 16 17 16 16 16 15 15 14 13 12 11 9 8 6 5 4 3 2 1 0
10 9 10 12 13 12 11 10 8 8 8 7 8 12 14 14 14 14 14 15 15 15 15 16 16 16 16 16 16 15 15 14 13 12 10 9 8 7 6 4 3 2 1 0
8 9 8 8 9 9 9 10 9 8 9 10 11 12 14 15 14 13 13 14 14 15 15 16 15 15 15 15 15 15 14 14 13 12 11 10 9 7 5 4 3 2 1 -0
7 8 8 8 9 8 7 9 10 9 9 9 10 11 13 13 12 12 13 13 13 14 15 15 15 15 15 15 15 14 14 14 13 12 11 10 8 7 5 4 3 1 1 -0
5 6 7 7 8 8 9 10 10 9 8 8 9 11 11 10 10 12 13 13 13 14 14 14 14 14 14 14 14 14 13 13 12 12 11 10 8 7 5 4 2 1 1 -0
5 5 6 5 8 8 11 11 10 10 9 8 9 10 10 10 12 13 14 13 13 13 13 13 13 13 13 13 13 13 13 12 12 11 11 10 8 7 5 3 2 1 1 -0
5 6 6 5 6 7 9 10 9 9 9 10 9 9 10 11 10 12 14 13 12 12 12 12 12 12 12 12 12 12 12 12 11 11 11 10 8 6 5 3 3 1 0 -1
4 5 5 4 5 7 10 11 11 10 9 11 10 10 10 9 7 9 12 11 11 11 11 11 11 11 11 12 11 11 11 11 11 10 10 8 7 5 4 3 2 1 0 -1
4 4 4 4 4 7 8 9 10 10 11 12 12 11 10 8 9 10 10 10 10 10 10 10 10 10 10 10 10 10 10 10 10 8 8 7 6 5 4 2 1 0 -1 -1
5 4 3 4 4 7 8 8 9 10 12 12 11 11 10 10 10 9 9 9 9 9 9 9 9 9 9 9 9 9 9 9 8 7 7 6 5 4 2 1 0 -1 -1 -2
5 6 6 5 8 10 10 11 12 12 11 10 10 10 9 9 8 8 8 8 8 8 8 8 8 8 9 9 8 8 8 7 7 7 6 5 4 3 2 1 -0 -1 -2 -2
5 5 5 5 6 8 10 11 11 11 10 10 9 9 8 7 7 7 7 7 7 7 7 7 7 7 8 8 7 7 7 6 6 6 5 4 3 2 0 -1 -1 -2 -2 -2
6 6 4 6 7 8 9 10 10 9 9 8 8 7 7 6 6 6 6 6 6 6 6 6 6 6 6 6 6 6 6 5 5 4 4 3 1 0 -1 -1 -1 -2 -2 -1
6 7 7 8 9 8 8 9 8 8 7 7 6 6 6 6 5 5 5 5 5 5 5 5 5 5 5 5 5 5 5 4 4 3 3 1 0 -1 -1 -2 -2 -3 -3 -3
Wind_Speed
4 3 4 8 9 6 3 5 9 9 5 7 13 22 26 15 12 17 17 15 17 20 16 11 14 14 14 15 17 18 17 14 11 6 6 5 6 6 7 14 16 16 16 15
4 6 9 4 4 4 5 6 9 8 3 6 10 19 22 15 13 16 17 18 19 16 11 12 14 16 19 20 20 19 20 18 16 12 7 4 4 4 6 12 15 17 16 16
7 6 1 4 4 4 6 7 7 7 6 4 8 13 10 8 5 7 10 12 12 17 17 14 15 18 19 21 23 21 21 20 18 13 6 4 3 2 4 6 7 15 17 17
6 5 3 4 5 6 7 7 6 5 5 6 4 9 13 7 9 9 11 12 14 15 14 14 15 17 21 24 20 21 21 20 18 16 14 12 11 10 10 7 8 12 17 17
6 3 5 6 6 7 7 1 1 2 3 5 3 5 12 7 9 10 9 11 14 13 14 16 18 20 20 18 18 19 18 20 19 19 19 17 14 10 6 6 8 9 11 16
7 3 4 5 0 2 2 3 3 5 3 4 5 6 10 7 8 8 7 7 9 10 12 14 13 12 13 14 16 17 19 21 19 21 20 20 19 14 10 10 10 9 7 9
7 5 2 2 1 2 3 4 5 6 4 6 3 5 12 13 9 9 11 12 9 7 9 11 12 13 15 16 18 19 21 22 21 22 22 22 20 18 17 15 13 11 9 8
5 7 3 3 5 3 3 5 4 4 6 7 4 8 11 11 10 10 11 11 11 10 9 11 12 13 14 16 17 19 22 23 22 23 23 20 18 15 14 15 12 13 11 11
4 7 2 0 2 6 4 4 4 3 4 5 8 9 13 9 8 7 9 10 12 11 10 10 10 11 12 15 18 21 22 22 22 23 21 20 19 18 16 14 13 10 10 9
5 6 5 2 1 1 2 6 5 2 3 6 8 7 6 10 10 10 10 10 11 10 10 10 10 10 11 12 13 15 19 22 21 20 20 18 19 19 16 14 15 14 13 11
4 4 6 4 5 6 5 4 4 3 3 4 6 9 8 10 10 11 13 12 12 12 12 11 9 8 9 9 11 14 17 18 18 20 20 19 18 18 16 16 16 15 12 13
4 4 5 8 4 4 7 7 8 4 6 6 5 11 11 11 10 10 12 13 12 12 12 11 10 9 8 10 11 14 15 18 19 18 18 19 17 16 17 18 16 14 14 13
6 4 5 8 3 1 3 5 7 4 2 5 6 12 6 7 10 10 12 13 14 13 13 11 9 9 9 10 11 13 15 17 16 15 17 18 18 18 20 19 16 15 15 14
6 5 7 9 9 4 6 7 7 8 6 8 13 22 25 24 22 19 14 14 13 13 12 11 11 10 10 10 11 13 15 15 14 15 17 19 21 21 20 18 16 16 15 15
5 5 8 10 11 6 9 16 12 14 13 14 19 22 30 27 21 17 13 12 13 14 13 12 11 11 10 10 11 12 14 14 15 17 19 22 19 18 17 17 17 16 16 16
4 5 4 7 7 6 9 20 20 17 13 16 22 24 26 19 11 11 12 11 12 13 14 13 13 12 12 11 11 12 14 14 15 18 21 18 17 17 18 18 17 16 15 14
6 7 4 6 5 6 10 15 12 9 10 11 13 14 11 11 12 12 12 12 12 13 14 14 14 13 13 12 12 13 13 12 15 18 18 17 17 18 19 18 17 17 16 15
9 7 4 4 3 10 11 5 8 10 11 13 12 13 13 13 13 12 11 8 11 12 13 15 14 14 13 12 11 10 9 11 14 16 17 17 18 19 17 17 18 17 14 14
7 8 5 3 6 11 10 10 7 8 9 9 11 13 11 9 8 7 7 6 10 13 15 15 15 15 14 14 11 9 9 10 13 17 18 18 18 18 17 18 18 16 13 13
3 4 5 5 6 10 11 4 2 2 8 5 4 6 9 8 10 10 9 12 15 16 15 14 14 13 14 14 9 8 11 11 16 18 16 15 16 18 18 18 16 13 12 13
4 4 7 8 9 12 10 2 3 3 8 5 4 8 9 7 9 12 15 15 15 16 16 15 14 13 13 12 8 10 12 15 16 12 11 13 15 17 16 14 12 12 12 11
9 8 8 7 7 11 6 6 7 9 6 7 10 10 11 12 13 13 14 14 14 14 14 14 13 15 14 11 8 11 15 15 10 9 11 13 14 14 12 12 12 12 12 11
9 10 7 12 12 6 5 9 8 6 10 11 10 12 13 13 12 13 12 13 13 13 14 13 13 15 15 11 8 13 16 11 9 9 12 11 12 12 12 13 13 12 11 10
7 6 7 9 12 11 11 10 10 11 12 12 12 12 10 11 12 13 12 12 13 13 14 12 13 15 16 15 12 13 14 10 9 10 10 9 10 11 11 11 12 12 12 11
8 5 7 14 14 12 10 9 10 10 10 10 10 8 8 9 11 11 12 13 12 12 11 11 12 14 17 16 15 13 11 9 9 10 9 8 10 10 11 11 11 13 12 13
9 12 15 22 17 15 16 10 9 9 9 8 8 9 9 8 10 11 12 11 12 13 13 13 13 14 16 16 17 14 10 8 9 9 8 8 8 9 9 9 9 16 15 18
Wind_Direction
32 54 245 234 213 221 241 249 267 266 231 203 246 262 271 261 226 240 240 233 232 235 235 208 200 198 196 197 199 199 197 192 181 174 178 184 205 203 203 207 207 206 207 208
12 271 247 228 188 204 231 266 275 286 234 218 277 277 274 263 239 236 236 233 233 236 230 209 199 198 201 202 203 202 202 196 193 193 180 176 173 190 201 204 206 207 207 208
224 250 216 173 197 220 245 234 255 276 318 280 309 297 285 289 255 252 238 234 231 229 230 216 205 205 205 207 206 205 204 200 197 189 167 148 138 148 182 203 207 209 208 210
254 264 215 221 241 206 265 249 239 279 320 299 357 304 293 288 295 265 246 233 234 231 228 220 210 209 210 213 207 206 203 202 197 189 189 188 195 202 203 196 198 202 207 211
271 240 212 231 240 195 232 311 275 290 251 299 272 237 286 316 295 282 262 239 236 230 224 224 218 217 216 210 205 206 204 204 199 197 199 201 209 210 187 184 193 201 209 214
254 272 219 221 252 164 140 44 52 54 71 294 241 200 284 270 251 286 299 276 251 238 228 231 227 217 215 204 204 203 204 207 202 201 203 206 209 203 192 196 201 206 209 214
318 310 260 159 124 28 86 55 347 339 344 264 209 219 255 259 250 256 280 294 295 265 237 233 226 217 215 206 204 203 205 210 205 204 207 209 211 206 206 205 206 204 207 212
315 305 258 208 204 196 181 149 176 265 274 293 287 243 259 269 276 264 265 276 287 273 250 239 232 223 218 211 205 203 207 212 206 207 210 211 210 209 213 210 205 206 210 212
226 277 303 209 211 160 160 196 172 168 284 282 278 286 297 297 304 293 283 284 280 276 267 254 246 230 222 215 209 206 208 212 209 209 210 210 210 210 211 208 207 208 210 209
179 270 296 330 69 21 162 152 107 144 278 286 291 279 261 297 308 320 318 304 292 289 282 271 257 243 232 223 216 208 210 213 212 209 210 212 211 212 210 206 207 209 209 208
160 221 302 322 215 204 144 160 165 174 198 226 281 273 239 249 275 296 299 297 291 289 284 277 268 253 238 225 213 211 213 215 213 211 210 212 211 209 208 210 211 210 208 207
140 137 271 270 244 176 184 196 165 190 242 211 241 271 263 259 271 275 284 291 291 285 281 277 272 265 247 232 221 218 216 216 216 212 209 212 210 206 208 213 211 207 208 208
141 126 331 334 358 112 233 219 196 188 191 206 223 268 279 287 288 281 279 286 290 292 291 289 283 270 256 242 230 224 221 221 217 209 210 212 211 208 211 212 209 206 207 208
135 171 199 234 253 237 245 241 199 186 219 240 236 263 282 289 294 300 298 292 294 295 296 295 291 281 268 251 236 230 229 222 214 210 212 214 214 213 212 209 206 205 205 207
135 224 239 255 269 271 253 260 235 216 224 240 262 266 276 284 295 301 301 302 306 307 307 302 295 290 280 264 246 235 232 222 212 212 216 219 216 213 210 207 206 204 205 208
154 222 256 274 268 254 260 263 258 244 236 243 261 272 272 284 296 297 300 306 309 311 311 307 302 296 288 275 259 243 236 224 211 216 221 220 214 210 209 208 205 203 205 206
189 190 218 270 298 319 272 252 237 221 212 211 239 254 286 311 310 305 306 308 304 306 306 304 300 293 288 279 262 250 241 222 215 221 223 218 213 212 211 207 203 204 204 203
168 165 197 277 350 245 246 245 218 229 244 227 245 268 286 284 288 285 278 278 300 307 307 305 300 295 292 285 274 259 240 223 221 224 225 220 214 213 208 205 206 206 202 204
165 161 188 212 252 270 287 275 217 214 272 242 239 267 283 296 309 294 276 286 298 299 296 294 291 291 291 290 284 267 249 232 228 230 228 221 215 213 207 207 207 203 199 203
104 153 185 195 223 254 251 259 147 139 283 266 216 290 304 330 326 301 300 310 307 302 300 298 299 298 296 295 289 266 257 242 239 237 232 222 214 212 210 209 205 198 196 202
149 175 203 219 237 262 259 264 129 219 257 314 319 312 306 288 268 282 298 302 297 298 301 303 304 303 299 299 292 271 264 254 251 245 233 222 215 213 211 205 198 191 193 194
187 190 208 198 221 256 236 156 198 237 293 309 307 301 295 288 286 293 300 302 305 307 308 310 311 309 306 304 290 278 273 270 262 241 231 223 214 209 206 198 194 189 189 193
209 203 206 204 228 251 197 213 247 283 293 294 294 294 295 296 298 305 307 309 310 309 311 313 311 309 309 305 288 281 284 282 264 242 233 223 211 205 199 194 190 187 189 195
239 217 233 256 261 262 268 270 273 274 279 287 291 294 298 299 303 309 311 311 312 311 312 313 314 313 312 311 300 283 287 283 261 250 239 220 207 203 199 197 193 191 193 196
222 218 245 264 275 285 262 263 278 287 294 300 303 302 305 305 305 305 307 308 307 306 306 308 307 306 305 307 304 297 291 280 263 253 240 220 208 202 201 202 201 199 201 198
212 233 253 268 276 282 291 298 298 300 305 307 310 310 309 305 300 303 304 301 302 304 305 306 305 305 306 308 305 302 294 275 260 257 241 222 209 202 199 200 207 215 209 211
Height
1548 1552 1554 1552 1551 1550 1550 1552 1553 1547 1540 1544 1540 1527 1511 1507 1509 1505 1503 1503 1504 1504 1508 1512 1514 1517 1519 1521 1523 1525 1528 1530 1532 1532 1533 1533 1534 1534 1534 1534 1533 1532 1531 1529
1552 1553 1546 1545 1547 1549 1550 1552 1551 1544 1540 1542 1536 1522 1504 1497 1495 1493 1492 1492 1494 1496 1500 1503 1507 1509 1511 1512 1515 1517 1519 1521 1523 1525 1527 1527 1528 1528 1528 1527 1526 1526 1525 1524
1551 1546 1543 1544 1545 1548 1548 1550 1547 1545 1540 1538 1538 1518 1501 1491 1488 1486 1484 1484 1486 1488 1491 1496 1499 1501 1503 1504 1505 1508 1510 1513 1515 1518 1520 1520 1520 1520 1520 1520 1520 1519 1518 1517
1547 1543 1543 1543 1544 1545 1550 1542 1543 1542 1545 1547 1541 1535 1499 1493 1488 1481 1478 1479 1479 1482 1485 1489 1492 1493 1495 1496 1499 1501 1503 1505 1507 1509 1510 1510 1510 1511 1512 1513 1513 1513 1512 1511
1546 1542 1542 1544 1542 1542 1543 1540 1541 1542 1545 1549 1544 1543 1509 1497 1488 1477 1473 1473 1474 1477 1480 1483 1485 1487 1489 1491 1492 1494 1495 1497 1498 1499 1500 1502 1502 1503 1505 1505 1505 1505 1504 1504
1543 1540 1539 1539 1539 1539 1540 1542 1545 1550 1552 1553 1542 1547 1520 1498 1486 1478 1472 1471 1472 1474 1477 1479 1481 1482 1483 1485 1485 1486 1487 1488 1489 1490 1491 1492 1493 1495 1496 1496 1497 1497 1497 1496
1546 1541 1538 1538 1540 1541 1542 1548 1555 1550 1552 1546 1538 1541 1516 1485 1480 1478 1474 1471 1471 1472 1473 1475 1476 1477 1477 1478 1478 1479 1479 1479 1480 1480 1481 1482 1483 1485 1486 1488 1489 1489 1488 1488
1551 1549 1539 1538 1539 1542 1543 1547 1556 1557 1555 1547 1537 1533 1501 1479 1476 1474 1472 1470 1469 1469 1470 1471 1471 1472 1472 1472 1472 1471 1471 1471 1471 1470 1471 1472 1474 1475 1477 1478 1479 1480 1480 1480
1550 1548 1538 1537 1537 1539 1543 1548 1548 1556 1555 1556 1540 1524 1498 1475 1472 1470 1468 1467 1466 1466 1467 1467 1467 1467 1466 1466 1465 1464 1463 1463 1462 1462 1462 1463 1464 1465 1467 1469 1470 1471 1471 1472
1544 1549 1541 1539 1538 1539 1540 1546 1554 1555 1556 1552 1539 1526 1507 1482 1473 1470 1468 1466 1464 1464 1464 1463 1463 1462 1461 1459 1458 1457 1455 1454 1454 1453 1453 1453 1454 1455 1457 1459 1460 1461 1462 1463
1543 1549 1545 1541 1540 1540 1544 1546 1547 1553 1556 1555 1547 1520 1489 1482 1475 1473 1469 1465 1463 1462 1460 1459 1457 1456 1455 1453 1451 1449 1447 1446 1445 1444 1443 1443 1444 1446 1447 1448 1450 1452 1453 1453
1544 1551 1552 1542 1536 1537 1539 1540 1546 1550 1547 1553 1552 1514 1479 1476 1472 1470 1467 1464 1461 1459 1457 1454 1452 1450 1448 1445 1443 1441 1439 1437 1436 1435 1434 1434 1434 1435 1436 1437 1440 1442 1443 1444
1544 1550 1551 1542 1541 1539 1538 1538 1540 1540 1544 1549 1545 1506 1475 1472 1468 1467 1465 1461 1458 1455 1451 1448 1446 1444 1441 1439 1436 1433 1431 1429 1427 1426 1424 1424 1424 1424 1425 1427 1429 1431 1433 1434
1540 1546 1548 1544 1536 1533 1534 1533 1535 1538 1539 1536 1523 1495 1475 1469 1466 1463 1460 1457 1453 1449 1446 1443 1440 1438 1436 1433 1429 1426 1423 1421 1418 1416 1414 1413 1412 1413 1415 1417 1419 1421 1423 1424
1540 1545 1543 1537 1532 1534 1532 1526 1524 1526 1520 1518 1498 1490 1474 1465 1465 1462 1457 1453 1449 1446 1443 1440 1437 1434 1431 1427 1423 1419 1415 1412 1409 1406 1403 1401 1402 1403 1404 1406 1408 1410 1412 1413
1539 1542 1540 1536 1529 1530 1529 1515 1510 1510 1509 1504 1494 1484 1466 1464 1462 1458 1454 1451 1448 1444 1441 1438 1434 1430 1426 1421 1417 1412 1408 1404 1400 1396 1392 1392 1391 1391 1392 1394 1397 1399 1401 1403
1539 1541 1540 1536 1529 1526 1520 1500 1497 1498 1495 1493 1488 1474 1463 1463 1459 1456 1452 1449 1447 1443 1439 1435 1430 1425 1420 1415 1410 1405 1400 1396 1391 1386 1383 1381 1380 1380 1381 1383 1386 1388 1390 1393
1533 1537 1540 1539 1530 1526 1498 1486 1486 1486 1482 1479 1474 1468 1464 1462 1457 1453 1451 1448 1444 1440 1435 1430 1424 1419 1413 1408 1403 1397 1391 1386 1381 1377 1374 1371 1369 1369 1371 1373 1375 1377 1380 1383
1525 1530 1536 1539 1532 1514 1498 1483 1481 1483 1477 1468 1468 1465 1461 1458 1453 1449 1448 1445 1441 1436 1430 1424 1418 1412 1405 1400 1394 1388 1382 1377 1372 1367 1364 1361 1360 1359 1360 1361 1364 1368 1371 1374
1525 1526 1532 1535 1532 1515 1488 1477 1475 1478 1477 1463 1463 1461 1458 1455 1455 1445 1442 1438 1433 1428 1422 1416 1409 1403 1397 1392 1386 1379 1373 1368 1362 1358 1355 1353 1351 1350 1350 1352 1356 1359 1362 1366
1527 1530 1531 1528 1524 1500 1480 1476 1477 1482 1472 1462 1459 1458 1455 1453 1451 1442 1435 1430 1426 1420 1414 1408 1402 1396 1390 1384 1377 1370 1365 1359 1355 1350 1346 1343 1342 1341 1342 1345 1348 1351 1355 1358
1516 1522 1524 1521 1520 1498 1471 1475 1475 1468 1461 1459 1456 1454 1450 1445 1440 1434 1429 1423 1418 1412 1407 1401 1394 1388 1383 1377 1370 1362 1357 1352 1346 1341 1337 1334 1333 1333 1334 1337 1340 1344 1347 1350
1506 1501 1498 1497 1483 1471 1468 1467 1464 1463 1459 1455 1452 1448 1445 1438 1433 1428 1423 1418 1412 1407 1401 1394 1388 1381 1375 1370 1363 1355 1349 1343 1337 1332 1328 1326 1325 1325 1326 1328 1331 1335 1338 1342
1491 1488 1488 1483 1470 1466 1464 1462 1461 1459 1455 1450 1447 1443 1438 1433 1428 1423 1418 1412 1407 1401 1395 1388 1381 1374 1368 1362 1356 1349 1342 1335 1330 1325 1321 1318 1317 1317 1318 1320 1323 1326 1329 1333
1484 1483 1482 1473 1464 1460 1456 1457 1455 1452 1449 1445 1441 1438 1433 1428 1423 1418 1413 1407 1401 1395 1389 1383 1376 1368 1361 1355 1349 1342 1335 1328 1322 1317 1313 1311 1310 1310 1311 1313 1316 1319 1322 1326
1473 1475 1473 1461 1457 1458 1451 1452 1449 1445 1442 1439 1435 1431 1428 1424 1419 1413 1407 1402 1395 1389 1382 1376 1369 1362 1355 1348 1341 1335 1329 1322 1316 1310 1307 1304 1303 1303 1304 1307 1310 1313 1317 1321